Location: Amarillo Post Office Jordan Station
(35.1907°N, 101.9342°W)
Time: 13:44:30
(UTC+00:00)

Cosmos 2237 Rocket - Pass Details

Date: 24 January 2021
Orbit: 833 x 851 km, 71.0° (Epoch: 03 March)

Event Time Altitude Azimuth Distance (km) Brightness Sun altitude
Exits shadow 12:52:28 16° 277° (W) 2,049 3.6 -12.3°
Maximum altitude 12:54:28 19° 303° (WNW) 1,894 3.5 -11.9°
Drops below altitude 10° 12:58:27 10° 349° (NNW) 2,475 4.4 -11.1°
Sets 13:01:40 0° 6° (N) 3,417 5.3 -10.5°
